Location: Izdebno
(52.6670°N, 16.2170°E)
Time: 10:29:50
(UTC+02:00)

A-11 Canister half - Pass Details

Date: 23 February 2024
Orbit: 1513 x 1686 km, 47.2° (Epoch: 24 April)

Event Time Altitude Azimuth Distance (km) Brightness Sun altitude
Exits shadow 04:23:51 35° 235° (SW) 2,473 9.5 -23.7°
Maximum altitude 04:28:32 62° 170° (S) 1,812 9.3 -23.0°
Drops below altitude 10° 04:38:07 10° 93° (E) 3,822 12.1 -21.6°
Sets 04:41:12 0° 90° (E) 4,784 13.0 -21.1°
